Mount Carmel, IL

7:51 AM CST on December 10, 2019 (GMT -0600)
Mount Carmel Municipal

Weather History for KAJG - October, 2019

Change the Weather History Date:

Sunday, October 27, 2019

  Actual Average (KLWV) Record (KLWV)
Temperature  
Mean Temperature 54 °F -  
Max Temperature 64 °F 62 °F 84 °F (2014)
Min Temperature 45 °F 42 °F 28 °F (2001)
Degree Days  
Heating Degree Days 10    
Growing Degree Days 4 (Base 50)    
Moisture  
Dew Point 46 °F    
Average Humidity 78    
Maximum Humidity 95    
Minimum Humidity 46    
Precipitation  
Precipitation 0.00 in - - ()
Sea Level Pressure  
Sea Level Pressure 29.97 in    
Wind  
Wind Speed 13 mph (WSW)    
Max Wind Speed 17 mph    
Max Gust Speed 24 mph    
Visibility 10 miles    
Events      
Averages and records for this station are not official NWS values.
T = Trace of Precipitation, MM = Missing Value Source: NWS Daily Summary

Daily Weather History Graph

Daily Weather History Graph

Search for Another Location

Airport or City:

Astronomy

Oct. 27, 2019 Rise Set
Actual Time 7:12 AM CDT 5:56 PM CDT
Civil Twilight 6:44 AM CDT 6:24 PM CDT
Nautical Twilight 6:13 AM CDT 6:55 PM CDT
Astronomical Twilight 5:42 AM CDT 7:26 PM CDT
Moon 6:21 AM CDT (10/27) 6:05 PM CDT (10/27)
Length of Visible Light 11h 39m
Length of Day
10h 44m
Waning Crescent, 0% of the Moon is Illuminated
Oct 27
Waning Crescent
Oct 27
New
Nov 4
First Quarter
Nov 12
Full
Nov 19
Last Quarter

Hourly Weather History & Observations

Time (CDT) Temp. Windchill Dew Point Humidity Pressure Visibility Wind Dir Wind Speed Gust Speed Precip Events Conditions
12:15 AM 50.7 °F - 46.4 °F 85% 29.74 in 10.0 mi WSW 16.1 mph 21.9 mph N/A   Overcast
12:35 AM 50.9 °F - 46.4 °F 85% 29.75 in 10.0 mi SW 17.3 mph - N/A   Overcast
12:55 AM 50.9 °F - 46.8 °F 86% 29.77 in 10.0 mi WSW 17.3 mph 24.2 mph N/A   Overcast
1:15 AM 50.9 °F - 47.1 °F 87% 29.78 in 10.0 mi WSW 15.0 mph 23.0 mph N/A   Overcast
1:35 AM 50.9 °F - 47.1 °F 87% 29.79 in 10.0 mi WSW 15.0 mph 20.7 mph N/A   Overcast
1:55 AM 50.9 °F - 47.3 °F 87% 29.79 in 10.0 mi WSW 12.7 mph - N/A   Overcast
2:15 AM 50.9 °F - 47.1 °F 87% 29.79 in 10.0 mi WSW 13.8 mph - N/A   Overcast
2:35 AM 50.9 °F - 47.1 °F 87% 29.81 in 10.0 mi WSW 13.8 mph - N/A   Overcast
2:55 AM 50.9 °F - 46.8 °F 86% 29.82 in 10.0 mi WSW 15.0 mph - N/A   Overcast
3:15 AM 50.9 °F - 46.9 °F 86% 29.83 in 10.0 mi WSW 13.8 mph - N/A   Overcast
3:35 AM 50.9 °F - 46.9 °F 86% 29.84 in 10.0 mi WSW 12.7 mph 20.7 mph N/A   Overcast
3:55 AM 50.7 °F - 46.8 °F 86% 29.85 in 10.0 mi WSW 12.7 mph - N/A   Overcast
4:15 AM 50.5 °F - 46.8 °F 87% 29.86 in 10.0 mi WSW 10.4 mph - N/A   Overcast
4:35 AM 50.4 °F - 46.6 °F 87% 29.87 in 10.0 mi WSW 12.7 mph - N/A   Overcast
4:55 AM 50.4 °F - 46.6 °F 87% 29.88 in 10.0 mi WSW 10.4 mph - N/A   Overcast
5:15 AM 50.0 °F - 46.2 °F 87% 29.89 in 10.0 mi WSW 11.5 mph - N/A   Overcast
5:35 AM 50.0 °F - 45.9 °F 86% 29.90 in 10.0 mi West 12.7 mph - N/A   Overcast
5:55 AM 49.6 °F - 46.0 °F 87% 29.91 in 10.0 mi West 11.5 mph - N/A   Overcast
6:15 AM 48.4 °F - 45.3 °F 89% 29.92 in 10.0 mi West 10.4 mph - N/A   Mostly Cloudy
6:35 AM 47.5 °F - 45.0 °F 91% 29.93 in 10.0 mi West 8.1 mph - N/A   Scattered Clouds
6:55 AM 46.2 °F - 44.1 °F 92% 29.94 in 10.0 mi North - - N/A   Scattered Clouds
7:15 AM 46.4 °F 42.4 °F 44.2 °F 92% 29.95 in 10.0 mi West 8.1 mph - N/A   Clear
7:35 AM 45.7 °F - 43.9 °F 93% 29.96 in 7.0 mi North - - N/A   Clear
7:55 AM 45.7 °F - 44.2 °F 95% 29.96 in 5.0 mi North - - N/A   Clear
8:15 AM 47.3 °F - 45.7 °F 94% 29.97 in 7.0 mi North - - N/A   Clear
8:35 AM 48.9 °F - 46.2 °F 90% 29.99 in 7.0 mi North - - N/A   Clear
8:55 AM 50.2 °F - 46.8 °F 88% 29.99 in 7.0 mi North - - N/A   Scattered Clouds
9:15 AM 50.9 °F - 46.2 °F 84% 30.00 in 10.0 mi WSW 9.2 mph - N/A   Scattered Clouds
9:35 AM 51.8 °F - 46.6 °F 82% 30.01 in 10.0 mi WSW 8.1 mph - N/A   Mostly Cloudy
9:55 AM 52.7 °F - 46.4 °F 79% 30.01 in 10.0 mi WSW 6.9 mph - N/A   Mostly Cloudy
10:15 AM 53.4 °F - 46.0 °F 76% 30.01 in 10.0 mi West 6.9 mph - N/A   Scattered Clouds
10:35 AM 54.1 °F - 47.1 °F 77% 30.02 in 10.0 mi North - - N/A   Scattered Clouds
10:55 AM 55.6 °F - 46.9 °F 73% 30.03 in 10.0 mi North - - N/A   Scattered Clouds
11:15 AM 56.3 °F - 46.0 °F 68% 30.03 in 10.0 mi North - - N/A   Clear
11:35 AM 57.0 °F - 46.4 °F 68% 30.04 in 10.0 mi North - - N/A   Clear
11:55 AM 57.9 °F - 46.0 °F 65% 30.03 in 7.0 mi North - - N/A   Clear
12:15 PM 59.0 °F - 45.3 °F 60% 30.03 in 10.0 mi North - - N/A   Clear
12:35 PM 59.7 °F - 46.0 °F 61% 30.02 in 10.0 mi North - - N/A   Clear
12:55 PM 61.0 °F - 46.0 °F 58% 30.01 in 10.0 mi North - - N/A   Clear
1:15 PM 61.2 °F - 46.0 °F 58% 30.01 in 10.0 mi North - - N/A   Clear
1:35 PM 62.2 °F - 46.0 °F 55% 30.01 in 10.0 mi North - - N/A   Clear
1:55 PM 62.2 °F - 46.0 °F 55% 30.01 in 10.0 mi North - - N/A   Clear
2:15 PM 63.3 °F - 46.2 °F 54% 30.01 in 10.0 mi North - - N/A   Clear
2:35 PM 63.7 °F - 45.0 °F 51% 30.01 in 10.0 mi North - - N/A   Clear
2:55 PM 63.7 °F - 44.6 °F 50% 30.01 in 10.0 mi North - - N/A   Clear
3:15 PM 64.0 °F - 45.3 °F 51% 30.01 in 10.0 mi North - - N/A   Clear
3:35 PM 64.4 °F - 44.2 °F 48% 30.02 in 10.0 mi North - - N/A   Clear
3:55 PM 64.4 °F - 43.2 °F 46% 30.02 in 10.0 mi North - - N/A   Clear
4:15 PM 64.2 °F - 44.8 °F 49% 30.01 in 10.0 mi North - - N/A   Clear
4:35 PM 63.9 °F - 44.2 °F 49% 30.01 in 10.0 mi North - - N/A   Clear
4:55 PM 63.5 °F - 45.3 °F 52% 30.01 in 10.0 mi South 3.5 mph - N/A   Clear
5:15 PM 63.0 °F - 47.1 °F 56% 30.01 in 10.0 mi South 6.9 mph - N/A   Clear
5:35 PM 61.0 °F - 48.2 °F 63% 30.01 in 10.0 mi SSE 5.8 mph - N/A   Clear
5:55 PM 59.2 °F - 48.4 °F 67% 30.01 in 10.0 mi North - - N/A   Clear
6:15 PM 57.0 °F - 48.4 °F 73% 30.02 in 10.0 mi North - - N/A   Clear
6:35 PM 54.5 °F - 48.4 °F 80% 30.02 in 10.0 mi North - - N/A   Clear
6:55 PM 54.0 °F - 46.9 °F 77% 30.03 in 10.0 mi North - - N/A   Clear
7:15 PM 53.2 °F - 47.3 °F 80% 30.04 in 10.0 mi North - - N/A   Clear
7:35 PM 52.3 °F - 47.3 °F 83% 30.04 in 10.0 mi North - - N/A   Clear
7:55 PM 51.6 °F - 46.6 °F 83% 30.04 in 10.0 mi Calm Calm - N/A   Clear
8:15 PM 50.0 °F - 46.0 °F 86% 30.04 in 10.0 mi North - - N/A   Clear
8:55 PM 49.5 °F - 46.8 °F 90% 30.04 in 10.0 mi North - - N/A   Clear
9:15 PM 48.6 °F - 46.6 °F 93% 30.05 in 10.0 mi North - - N/A   Clear
9:35 PM 47.8 °F - 45.7 °F 92% 30.05 in 7.0 mi North - - N/A   Clear
9:55 PM 47.7 °F - 45.7 °F 93% 30.05 in 7.0 mi North - - N/A   Clear
10:15 PM 48.4 °F - 46.4 °F 93% 30.05 in 10.0 mi North - - N/A   Clear
10:35 PM 48.0 °F - 46.0 °F 93% 30.05 in 10.0 mi North - - N/A   Clear
11:15 PM 47.7 °F - 45.9 °F 93% 30.05 in 10.0 mi North - - N/A   Clear
11:35 PM 45.7 °F - 43.9 °F 93% 30.05 in 10.0 mi North - - N/A   Clear
11:55 PM 46.2 °F - 45.0 °F 95% 30.05 in 5.0 mi North - - N/A   Clear